{"data":{"norad_id":61912,"intl_designator":"2024-207A","name":"STARLINK-32303","alt_names":[],"object_type":"PAYLOAD","status":"ACTIVE","operator":null,"country":"US","launch_date":"2024-11-11","launch_site_code":"AFETR","launch_vehicle":null,"mission":null,"orbit_class":"UNKNOWN","rcs_meters":null,"size_class":null,"mass_kg":null,"dimensions":null,"purposes":["comms"],"wikipedia_slug":null,"has_3d_model":false,"image_url":null,"decayed_at":null,"tle_current":{"epoch":"2026-05-24T20:54:57.699360Z","epoch_age_seconds":96737,"freshness":"FRESH","line1":"1 61912U 24207A   26144.87150115  .00004560  00000+0  17510-3 0  9990","line2":"2 61912  42.9965 211.4581 0000305 308.6104  51.4721 15.27582815 86961","mean_motion":15.27582815,"eccentricity":3.05e-5,"inclination_deg":42.9965,"raan_deg":211.4581,"arg_perigee_deg":308.6104,"mean_anomaly_deg":51.4721,"bstar":0.0001751,"rev_number":8696,"period_min":94.266575000714,"perigee_km":482.83140101106,"apogee_km":483.24993284875,"semimajor_km":6861.1776669299,"source":"CELESTRAK","updated_at":"2026-05-25T13:38:19.479728Z"}}}